Location: Capelle
(50.3413°N, 1.9974°E)
Time: 00:42:16
(UTC+00:00)

USA 238 DEB - Pass Details

Date: 12 January 2026
Orbit: 883 x 1328 km, 63.4° (Epoch: 10 January)

Event Time Altitude Azimuth Distance (km) Brightness Sun altitude
Rises 16:45:49 0° 312° (NW) 3,853 6.9 -5.3°
Reaches altitude 10° 16:48:30 10° 318° (NW) 2,961 6.2 -5.7°
Maximum altitude 16:55:21 47° 32° (NNE) 1,534 4.2 -6.7°
Drops below altitude 10° 17:02:52 10° 104° (ESE) 3,250 5.8 -7.8°
Sets 17:05:55 0° 111° (ESE) 4,261 6.4 -8.2°
